Regional Weather Roundup
Issued by NWS

Home | Current Version | Previous Version | Graphics & Text | Print | Product List | Glossary On
Versions: 1 2 3 4 5 6 7 8 9 10 11 12 13 14 15 16 17 18 19 20 21 22 23 24 25 26 27 28 29 30 31 32 33 34 35 36 37 38 39 40 41 42 43 44 45 46 47 48 49 50
000
ASUS43 KLOT 230912
RWRIL

ILLINOIS REGIONAL WEATHER ROUNDUP
NATIONAL WEATHER SERVICE CHICAGO/ROMEOVILLE IL
300 AM CST MON JAN 23 2017

NOTE: "FAIR" INDICATES FEW OR NO CLOUDS BELOW 12,000 FEET WITH NO
SIGNIFICANT WEATHER AND/OR OBSTRUCTIONS TO VISIBILITY.

* THESE STATIONS ARE NOT UNDER NWS QUALITY CONTROL. THEY ALSO MAY NOT
  REPORT WEATHER SUCH AS PRECIPITATION OR FOG.

ILZ001-002-007-009-015-016-024-231000-
NORTHWEST ILLINOIS

CITY           SKY/WX    TMP DP  RH WIND       PRES   REMARKS
MOLINE         CLOUDY    37  34  89 NW7       29.78S WCI  32
STERLING*      CLOUDY    37  36  96 NW5       29.77R WCI  33
SAVANNA*       CLOUDY    36  35  96 CALM      29.78R FOG
$$

ILZ003-004-008-010-011-017-018-231000-
NORTH CENTRAL ILLINOIS

CITY           SKY/WX    TMP DP  RH WIND       PRES   REMARKS
ROCKFORD       DRIZZLE   38  35  89 N8        29.76S WCI  32
FREEPORT*      CLOUDY    36  35  96 NW5       29.77S FOG     WCI  32
ROCHELLE*      CLOUDY    36  35  97 N7        29.74F WCI  30
DE KALB*       CLOUDY    37  36  96 NW6       29.73S FOG     WCI  32
PERU*          CLOUDY    37  34  91 NW14      29.74S WCI  28
$$

ILZ005-006-012>014-019>023-231000-
NORTHEAST ILLINOIS

CITY           SKY/WX    TMP DP  RH WIND       PRES   REMARKS
CHICAGO-OHARE  CLOUDY    38  36  92 N13       29.69S FOG     WCI  30
CHICAGO-MIDWAY CLOUDY    39  35  86 N15G25    29.70R WCI  31
AURORA         CLOUDY    38  35  89 NW12      29.72S FOG     WCI  30
LANSING*       CLOUDY    37  37 100 N5        29.69R FOG     WCI  33
JOLIET*        CLOUDY    40  37  92 N7        29.71R FOG
WAUKEGAN       CLOUDY    37  36  96 VRB5      29.70F FOG     WCI  33
DUPAGE AIRPORT CLOUDY    38  34  85 NW14      29.70S WCI  30
KANKAKEE*      CLOUDY    40  37  91 NW8       29.69R
WHEELING       CLOUDY    37  35  92 NW10      29.71S WCI  30
MORRIS*        CLOUDY    37  35  92 NW7       29.70S FOG     WCI  32
ROMEOVILLE*    CLOUDY    38  38  99 N9        29.71R FOG     WCI  31
NORTHERLY ISL    N/A     37  35  92 NW10        N/A  WCI  30
$$

LMZ740>746-231000-
SOUTHERN LAKE MICHIGAN

STATION/POSITION SKY/WX   TEMP    WIND        PRES    VSBY  WAVE
                          AIR SEA DIR/SP/G                  HT/PER
                          (F)     (DEG/KT/KT) (MB)    (MI)  (FT/S)
HARRISON CRIB              36     340/ 19/ 20   N/A
BURNHAM HARBOR             37     320/  9/ 14   N/A
CALUMET HARBOR             36     330/  7/ 11 1005.1R
BURNS HARBOR               36     350/ 11/ 14 1006.1R
MICHIGAN CITY              36     330/ 17/ 18   N/A
$$

ILZ025>027-034>036-040-047-049-050-058-095>099-231000-
WEST-CENTRAL ILLINOIS

CITY           SKY/WX    TMP DP  RH WIND       PRES   REMARKS
QUINCY         CLOUDY    38  36  92 NW15      29.78F WCI  29
GALESBURG*     CLOUDY    36  36 100 NW7       29.78R FOG     WCI  30
MACOMB*        CLOUDY    37  36  96 NW12      29.80F FOG     WCI  29
JACKSONVILLE*  CLOUDY    37  36  94 NW15      29.76S FOG     WCI  28
PITTSFIELD*    CLOUDY    39  37  94 NW7       29.79S WCI  34
$$

ILZ028>032-037-038-041>044-048-051>054-059>061-231000-
CENTRAL ILLINOIS

CITY           SKY/WX    TMP DP  RH WIND       PRES   REMARKS
PONTIAC        CLOUDY    38  38 100 NW15      29.71S FOG     WCI  30
BLOOMINGTON    CLOUDY    37  36  93 N18       29.70F WCI  27
DECATUR        CLOUDY    40  39  97 N17       29.69R FOG
PEORIA         CLOUDY    38  36  92 N9        29.75S WCI  31
LACON*         CLOUDY    37  36  94 NW9       29.75S WCI  30
LINCOLN*       CLOUDY    39  38  94 NW7       29.72S WCI  34
SPRINGFIELD    CLOUDY    40  36  86 N10       29.74R
TAYLORVILLE    CLOUDY    38  36  91 N21       29.71R WCI  28
$$

ILZ033-039-045-046-055>057-062-063-231000-
EAST-CENTRAL ILLINOIS

CITY           SKY/WX    TMP DP  RH WIND       PRES   REMARKS
CHAMPAIGN      CLOUDY    40  37  89 N16G25    29.66S
RANTOUL*       CLOUDY    40  39  95 N14G21    29.67R FOG
MATTOON        CLOUDY    39  37  92 N20       29.66R FOG     WCI  29
PARIS*         CLOUDY    41  40  97 N14G22    29.64R FOG
$$

ILZ079-100>102-231000-
SOUTHWEST ILLINOIS

CITY           SKY/WX    TMP DP  RH WIND       PRES   REMARKS
ALTON          CLOUDY    38  35  89 NW12G17   29.74R WCI  30
BELLEVILLE     CLOUDY    39  38  96 NW13      29.72R WCI  31
CAHOKIA*       MOCLDY    40  34  79 NW14      29.75R
SPARTA*        CLOUDY    39  35  86 NW16      29.73R WCI  30
$$

ILZ064>066-069>071-074>076-080>082-084>086-088>090-092>094-231000-
SOUTH-CENTRAL ILLINOIS

CITY           SKY/WX    TMP DP  RH WIND       PRES   REMARKS
CARBONDALE     CLOUDY    41  37  86 NW16G29   29.68R
CAIRO*         MOCLDY    43  37  80 NW14G30   29.64R
EFFINGHAM*     CLOUDY    41  40  97 NW17G25   29.68R FOG
MARION         CLOUDY    43  39  87 NW9G24    29.67R
MT. VERNON     CLOUDY    41  37  86 VRB7      29.67R
CENTRALIA*     CLOUDY    41  38  90 NW16G26   29.68R
SALEM*         CLOUDY    42  38  84 NW20      29.68R FOG
METROPOLIS*    PTCLDY    44  38  79 NW18G26   29.60S
$$

ILZ067-068-072-073-078-083-087-091-231000-
SOUTHEAST ILLINOIS

CITY           SKY/WX    TMP DP  RH WIND       PRES   REMARKS
LAWRENCEVILLE  CLOUDY    44  42  93 NW20G28   29.59R
FLORA*         CLOUDY    43  39  87 NW13      29.65R
FAIRFIELD*     CLOUDY    41  38  89 NW8       29.62R
HARRISBURG*    CLOUDY    43  39  85 NW14G20   29.63R
ROBINSON*      CLOUDY    42  41  96 NW13G20   29.62R FOG
CARMI*         CLOUDY    44  41  89 NW18G29   29.59R
$$

ABBREVIATIONS USED IN REMARKS
   TC - TEMPERATURE IN CELSIUS
  WCI - WIND CHILL INDEX
   HX - HEAT INDEX
  VSB - VISIBILITY
$$





USA.gov is the U.S. government's official web portal to all federal, state and local government web resources and services.